| time (UTC) | temp C | wind direction | speed KPH | gust KPH | rain 1hr cm | rain 24hr cm | rain mn cm | humidity % | barometer mb |
| 20260507094517 | 2 | 289 | 0.0 | 0.0 | 0.00 | 0.03 | 0.00 | 91 | 1015.0 |
| 20260507094006 | 2 | 289 | 0.0 | 0.0 | 0.00 | 0.03 | 0.00 | 91 | 1015.0 |
| 20260507093508 | 2 | 289 | 0.0 | 0.0 | 0.00 | 0.03 | 0.00 | 91 | 1014.9 |
| 20260507093023 | 2 | 289 | 0.0 | 0.0 | 0.00 | 0.03 | 0.00 | 91 | 1014.9 |
| 20260507092507 | 2 | 289 | 0.0 | 0.0 | 0.00 | 0.03 | 0.00 | 91 | 1014.9 |
| 20260507092009 | 2 | 289 | 0.0 | 0.0 | 0.00 | 0.03 | 0.00 | 90 | 1014.7 |
| 20260507091526 | 2 | 289 | 0.0 | 0.0 | 0.00 | 0.03 | 0.00 | 90 | 1014.7 |
| 20260507091011 | 2 | 289 | 0.0 | 0.0 | 0.00 | 0.03 | 0.00 | 90 | 1014.7 |
| 20260507090509 | 2 | 289 | 0.0 | 0.0 | 0.00 | 0.03 | 0.00 | 90 | 1014.6 |
| 20260507090019 | 2 | 289 | 0.0 | 0.0 | 0.00 | 0.03 | 0.00 | 90 | 1014.6 |
| 20260507085502 | 2 | 289 | 0.0 | 0.0 | 0.00 | 0.03 | 0.00 | 90 | 1014.6 |
| 20260507085004 | 2 | 289 | 0.0 | 0.0 | 0.00 | 0.03 | 0.00 | 90 | 1014.5 |
| 20260507084515 | 2 | 289 | 0.0 | 0.0 | 0.00 | 0.03 | 0.00 | 90 | 1014.5 |
| 20260507084003 | 2 | 289 | 0.0 | 0.0 | 0.00 | 0.03 | 0.00 | 90 | 1014.5 |
| 20260507083503 | 3 | 289 | 0.0 | 0.0 | 0.00 | 0.03 | 0.00 | 90 | 1014.5 |
| 20260507083020 | 3 | 289 | 0.0 | 0.0 | 0.00 | 0.03 | 0.00 | 90 | 1014.5 |
| 20260507082506 | 3 | 289 | 0.0 | 0.0 | 0.00 | 0.03 | 0.00 | 90 | 1014.5 |
| 20260507082009 | 3 | 289 | 0.0 | 0.0 | 0.00 | 0.05 | 0.00 | 90 | 1014.4 |
| 20260507081505 | 3 | 289 | 0.0 | 0.0 | 0.00 | 0.05 | 0.00 | 90 | 1014.4 |
| 20260507081003 | 3 | 289 | 0.0 | 0.0 | 0.00 | 0.05 | 0.00 | 90 | 1014.4 |
| 20260507080503 | 3 | 289 | 0.0 | 0.0 | 0.00 | 0.05 | 0.00 | 91 | 1014.4 |
| 20260507080008 | 3 | 289 | 0.0 | 0.0 | 0.00 | 0.05 | 0.00 | 91 | 1014.5 |
| 20260507075507 | 3 | 289 | 0.0 | 0.0 | 0.00 | 0.08 | 0.00 | 91 | 1014.4 |
| 20260507075004 | 3 | 289 | 0.0 | 0.0 | 0.00 | 0.08 | 0.00 | 90 | 1014.5 |
| 20260507074524 | 3 | 289 | 0.0 | 0.0 | 0.00 | 0.10 | 0.00 | 90 | 1014.5 |
| 20260507074004 | 3 | 289 | 0.0 | 0.0 | 0.00 | 0.13 | 0.00 | 90 | 1014.4 |
| 20260507073504 | 3 | 289 | 0.0 | 0.0 | 0.00 | 0.13 | 0.00 | 90 | 1014.4 |
| 20260507073020 | 3 | 289 | 0.0 | 0.0 | 0.00 | 0.15 | 0.00 | 90 | 1014.4 |
| 20260507072508 | 3 | 289 | 0.0 | 0.0 | 0.00 | 0.15 | 0.00 | 90 | 1014.4 |
| 20260507072007 | 3 | 289 | 0.0 | 0.0 | 0.00 | 0.18 | 0.00 | 90 | 1014.5 |
| 20260507071522 | 3 | 289 | 0.0 | 0.0 | 0.00 | 0.20 | 0.00 | 90 | 1014.5 |
| 20260507071009 | 3 | 289 | 0.0 | 0.0 | 0.00 | 0.25 | 0.00 | 90 | 1014.4 |
| 20260507070508 | 3 | 289 | 0.0 | 0.0 | 0.00 | 0.28 | 0.00 | 90 | 1014.3 |
| 20260507070013 | 3 | 289 | 0.0 | 0.0 | 0.00 | 0.30 | 0.00 | 90 | 1014.3 |
| 20260507065505 | 3 | 289 | 0.0 | 0.0 | 0.00 | 0.33 | 0.00 | 90 | 1014.3 |
| 20260507065004 | 3 | 289 | 0.0 | 0.0 | 0.00 | 0.33 | 0.00 | 90 | 1014.4 |
| 20260507064512 | 3 | 289 | 0.0 | 0.0 | 0.00 | 0.36 | 0.00 | 90 | 1014.5 |
| 20260507064004 | 4 | 289 | 0.0 | 0.0 | 0.00 | 0.36 | 0.00 | 90 | 1014.5 |
| 20260507063507 | 4 | 289 | 0.0 | 0.0 | 0.00 | 0.36 | 0.00 | 90 | 1014.5 |
| 20260507063023 | 4 | 289 | 0.0 | 0.0 | 0.00 | 0.36 | 0.00 | 89 | 1014.6 |
| 20260507062507 | 4 | 289 | 0.0 | 0.0 | 0.00 | 0.36 | 0.00 | 89 | 1014.6 |
| 20260507062007 | 4 | 289 | 0.0 | 0.0 | 0.00 | 0.38 | 0.00 | 89 | 1014.5 |
| 20260507061518 | 4 | 289 | 0.0 | 0.0 | 0.00 | 0.43 | 0.00 | 89 | 1014.5 |
| 20260507061009 | 4 | 289 | 0.0 | 0.0 | 0.00 | 0.46 | 0.00 | 89 | 1014.5 |
| 20260507060508 | 4 | 289 | 0.0 | 0.0 | 0.00 | 0.51 | 0.00 | 89 | 1014.6 |
| 20260507060027 | 4 | 289 | 0.0 | 0.0 | 0.00 | 0.51 | 0.00 | 89 | 1014.5 |
| 20260507055508 | 5 | 289 | 0.0 | 0.0 | 0.00 | 0.53 | 0.00 | 89 | 1014.6 |
| 20260507055008 | 5 | 289 | 0.0 | 0.0 | 0.00 | 0.56 | 0.00 | 89 | 1014.6 |
| 20260507054510 | 5 | 289 | 0.0 | 0.0 | 0.00 | 0.58 | 0.00 | 89 | 1014.7 |
| 20260507054005 | 5 | 289 | 0.0 | 0.0 | 0.00 | 0.61 | 0.00 | 89 | 1014.7 |
| 20260507053504 | 5 | 289 | 0.0 | 0.0 | 0.00 | 0.64 | 0.00 | 89 | 1014.6 |
| 20260507053014 | 5 | 289 | 0.0 | 0.0 | 0.00 | 0.66 | 0.00 | 89 | 1014.5 |
| 20260507052504 | 5 | 289 | 0.0 | 0.0 | 0.00 | 0.71 | 0.00 | 89 | 1014.5 |
| 20260507052004 | 5 | 289 | 0.0 | 0.0 | 0.00 | 0.81 | 0.00 | 89 | 1014.6 |
| 20260507051520 | 5 | 289 | 0.0 | 0.0 | 0.00 | 0.91 | 0.00 | 89 | 1014.7 |
| 20260507051013 | 5 | 289 | 0.0 | 0.0 | 0.00 | 0.94 | 0.00 | 89 | 1014.7 |
| 20260507050507 | 5 | 289 | 0.0 | 0.0 | 0.00 | 0.97 | 0.00 | 89 | 1014.8 |
| 20260507050028 | 5 | 289 | 0.0 | 0.0 | 0.00 | 0.99 | 0.00 | 89 | 1014.7 |
| 20260507045507 | 5 | 289 | 0.0 | 0.0 | 0.00 | 1.04 | 0.00 | 88 | 1014.8 |
| 20260507045007 | 5 | 289 | 0.0 | 0.0 | 0.00 | 1.07 | 0.00 | 89 | 1014.8 |
| 20260507044526 | 5 | 289 | 0.0 | 0.0 | 0.00 | 1.07 | 0.00 | 89 | 1014.8 |
| 20260507044008 | 5 | 289 | 0.0 | 0.0 | 0.00 | 1.09 | 0.00 | 88 | 1014.7 |
| 20260507043508 | 5 | 289 | 0.0 | 0.0 | 0.00 | 1.14 | 0.00 | 88 | 1014.6 |
| 20260507043012 | 5 | 289 | 0.0 | 0.0 | 0.00 | 1.19 | 0.00 | 88 | 1014.6 |
| 20260507042504 | 5 | 289 | 0.0 | 0.0 | 0.00 | 1.24 | 0.00 | 88 | 1014.6 |
| 20260507042005 | 5 | 289 | 0.0 | 0.0 | 0.00 | 1.37 | 0.00 | 87 | 1014.7 |
| 20260507041514 | 5 | 289 | 0.0 | 0.0 | 0.00 | 1.42 | 0.00 | 87 | 1014.7 |
| 20260507041007 | 6 | 289 | 0.0 | 0.0 | 0.00 | 1.45 | 0.00 | 87 | 1014.7 |
| 20260507040506 | 6 | 289 | 0.0 | 0.0 | 0.00 | 1.45 | 0.00 | 87 | 1014.6 |
| 20260507040022 | 6 | 289 | 0.0 | 3.2 | 0.00 | 1.45 | 0.00 | 87 | 1014.6 |
| 20260507035507 | 6 | 289 | 0.0 | 3.2 | 0.00 | 1.45 | 1.45 | 87 | 1014.6 |
| 20260507035008 | 6 | 289 | 0.0 | 3.2 | 0.00 | 1.45 | 1.45 | 87 | 1014.6 |
| 20260507034522 | 6 | 289 | 0.0 | 3.2 | 0.00 | 1.45 | 1.45 | 87 | 1014.6 |
| 20260507034009 | 6 | 289 | 0.0 | 3.2 | 0.00 | 1.45 | 1.45 | 87 | 1014.6 |
| 20260507033508 | 6 | 289 | 0.0 | 3.2 | 0.00 | 1.45 | 1.45 | 87 | 1014.7 |
| 20260507033028 | 6 | 289 | 0.0 | 3.2 | 0.00 | 1.45 | 1.45 | 87 | 1014.7 |
| 20260507032509 | 6 | 289 | 0.0 | 3.2 | 0.00 | 1.45 | 1.45 | 87 | 1014.7 |
| 20260507032015 | 6 | 289 | 0.0 | 3.2 | 0.00 | 1.45 | 1.45 | 87 | 1014.8 |
| 20260507031512 | 6 | 289 | 0.0 | 3.2 | 0.00 | 1.47 | 1.45 | 87 | 1014.8 |
| 20260507031004 | 6 | 289 | 0.0 | 3.2 | 0.00 | 1.47 | 1.45 | 86 | 1014.8 |
| 20260507030506 | 6 | 289 | 0.0 | 3.2 | 0.00 | 1.47 | 1.45 | 86 | 1014.8 |
| 20260507030019 | 6 | 289 | 0.0 | 3.2 | 0.00 | 1.47 | 1.45 | 86 | 1014.8 |
| 20260507025506 | 6 | 289 | 0.0 | 3.2 | 0.00 | 1.47 | 1.45 | 86 | 1014.8 |
| 20260507025006 | 6 | 289 | 0.0 | 3.2 | 0.00 | 1.47 | 1.45 | 86 | 1014.8 |
| 20260507024525 | 7 | 289 | 0.0 | 3.2 | 0.00 | 1.52 | 1.45 | 85 | 1014.8 |
| 20260507024010 | 7 | 289 | 0.0 | 3.2 | 0.00 | 1.55 | 1.45 | 86 | 1014.8 |
| 20260507023507 | 7 | 289 | 0.0 | 3.2 | 0.00 | 1.57 | 1.45 | 85 | 1014.7 |
| 20260507023028 | 7 | 289 | 0.0 | 3.2 | 0.00 | 1.60 | 1.45 | 85 | 1014.7 |
| 20260507022509 | 7 | 289 | 0.0 | 3.2 | 0.00 | 1.60 | 1.45 | 85 | 1014.8 |
| 20260507022010 | 7 | 289 | 0.0 | 3.2 | 0.00 | 1.63 | 1.45 | 85 | 1014.7 |
| 20260507021528 | 7 | 289 | 0.0 | 3.2 | 0.00 | 1.65 | 1.45 | 85 | 1014.7 |
| 20260507021009 | 7 | 289 | 0.0 | 3.2 | 0.00 | 1.68 | 1.45 | 85 | 1014.6 |
| 20260507020512 | 7 | 289 | 0.0 | 0.0 | 0.00 | 1.73 | 1.45 | 84 | 1014.6 |
| 20260507020018 | 7 | 289 | 0.0 | 0.0 | 0.00 | 1.78 | 1.45 | 83 | 1014.6 |
| 20260507015507 | 7 | 289 | 0.0 | 1.6 | 0.00 | 1.80 | 1.45 | 83 | 1014.5 |
| 20260507015007 | 7 | 289 | 0.0 | 3.2 | 0.00 | 1.80 | 1.45 | 82 | 1014.5 |
| 20260507014531 | 8 | 289 | 0.0 | 3.2 | 0.00 | 1.80 | 1.45 | 82 | 1014.4 |
| 20260507014006 | 8 | 10 | 0.0 | 3.2 | 0.00 | 1.80 | 1.45 | 82 | 1014.2 |
| 20260507013507 | 8 | 10 | 0.0 | 1.6 | 0.00 | 1.80 | 1.45 | 81 | 1014.2 |
| 20260507013024 | 8 | 10 | 0.0 | 3.2 | 0.00 | 1.83 | 1.45 | 80 | 1014.2 |
| 20260507012507 | 8 | 10 | 0.0 | 3.2 | 0.00 | 1.85 | 1.45 | 80 | 1014.0 |
| 20260507012010 | 8 | 10 | 0.0 | 3.2 | 0.00 | 1.88 | 1.45 | 79 | 1013.9 |
| 20260507011529 | 9 | 10 | 0.0 | 3.2 | 0.00 | 1.93 | 1.45 | 78 | 1014.0 |
| 20260507011010 | 9 | 10 | 0.0 | 3.2 | 0.00 | 1.98 | 1.45 | 78 | 1014.0 |
| 20260507010506 | 10 | 10 | 0.0 | 3.2 | 0.00 | 2.03 | 1.45 | 77 | 1014.2 |
| 20260507010033 | 10 | 10 | 0.0 | 3.2 | 0.00 | 2.08 | 1.45 | 74 | 1014.0 |
| 20260507005511 | 10 | 10 | 0.0 | 0.0 | 0.00 | 2.11 | 1.45 | 72 | 1014.1 |
| 20260507005008 | 10 | 10 | 0.0 | 0.0 | 0.00 | 2.11 | 1.45 | 70 | 1013.9 |
| 20260507004521 | 10 | 10 | 0.0 | 0.0 | 0.00 | 2.11 | 1.45 | 71 | 1014.0 |
| 20260507004010 | 11 | 10 | 0.0 | 0.0 | 0.00 | 2.13 | 1.45 | 69 | 1013.9 |
| 20260507003507 | 11 | 10 | 0.0 | 3.2 | 0.00 | 2.13 | 1.45 | 69 | 1013.8 |
| 20260507003023 | 11 | 10 | 0.0 | 3.2 | 0.00 | 2.16 | 1.45 | 65 | 1013.8 |
| 20260507002512 | 11 | 315 | 0.0 | 3.2 | 0.00 | 2.16 | 1.45 | 65 | 1013.8 |
| 20260507002009 | 12 | 315 | 0.0 | 3.2 | 0.00 | 2.18 | 1.45 | 64 | 1013.7 |
| 20260507001529 | 12 | 315 | 0.0 | 3.2 | 0.00 | 2.18 | 1.45 | 63 | 1013.7 |
| 20260507001012 | 12 | 315 | 0.0 | 3.2 | 0.00 | 2.18 | 1.45 | 59 | 1013.6 |
| 20260507000508 | 12 | 315 | 0.0 | 3.2 | 0.00 | 2.21 | 1.45 | 59 | 1013.6 |
| 20260507000036 | 12 | 321 | 1.6 | 4.8 | 0.00 | 2.21 | 1.45 | 58 | 1013.5 |
| 20260506235509 | 12 | 57 | 0.0 | 4.8 | 0.00 | 2.21 | 1.45 | 58 | 1013.3 |
| 20260506235007 | 12 | 328 | 0.0 | 3.2 | 0.00 | 2.21 | 1.45 | 59 | 1013.5 |
| 20260506234528 | 12 | 317 | 1.6 | 6.4 | 0.00 | 2.21 | 1.45 | 57 | 1013.4 |
| 20260506234009 | 12 | 341 | 3.2 | 6.4 | 0.00 | 2.21 | 1.45 | 57 | 1013.5 |
| 20260506233507 | 12 | 320 | 3.2 | 8.0 | 0.00 | 2.21 | 1.45 | 57 | 1013.4 |
| 20260506233021 | 12 | 352 | 1.6 | 8.0 | 0.00 | 2.21 | 1.45 | 56 | 1013.4 |
| 20260506232506 | 13 | 302 | 3.2 | 9.7 | 0.00 | 2.21 | 1.45 | 56 | 1013.3 |
| 20260506232002 | 13 | 321 | 3.2 | 9.7 | 0.00 | 2.21 | 1.45 | 56 | 1013.3 |
| 20260506231504 | 13 | 294 | 3.2 | 9.7 | 0.00 | 2.21 | 1.45 | 55 | 1013.3 |
| 20260506231003 | 13 | 276 | 3.2 | 9.7 | 0.00 | 2.21 | 1.45 | 55 | 1013.3 |
| 20260506230504 | 13 | 46 | 4.8 | 12.9 | 0.00 | 2.21 | 1.45 | 55 | 1013.3 |
| 20260506230011 | 13 | 345 | 4.8 | 12.9 | 0.00 | 2.21 | 1.45 | 56 | 1013.4 |
| 20260506225504 | 13 | 49 | 1.6 | 12.9 | 0.00 | 2.21 | 1.45 | 55 | 1013.4 |
| 20260506225006 | 13 | 304 | 3.2 | 12.9 | 0.00 | 2.21 | 1.45 | 54 | 1013.4 |
| 20260506224517 | 13 | 340 | 3.2 | 12.9 | 0.00 | 2.21 | 1.45 | 56 | 1013.4 |
| 20260506224006 | 13 | 325 | 1.6 | 6.4 | 0.00 | 2.21 | 1.45 | 55 | 1013.5 |
| 20260506223507 | 13 | 303 | 3.2 | 8.0 | 0.00 | 2.21 | 1.45 | 55 | 1013.6 |
| 20260506223018 | 13 | 26 | 1.6 | 9.7 | 0.00 | 2.21 | 1.45 | 54 | 1013.5 |
| 20260506222506 | 13 | 314 | 3.2 | 9.7 | 0.00 | 2.24 | 1.45 | 54 | 1013.5 |
| 20260506222007 | 13 | 335 | 3.2 | 6.4 | 0.00 | 2.24 | 1.45 | 55 | 1013.6 |
| 20260506221524 | 13 | 9 | 3.2 | 6.4 | 0.00 | 2.24 | 1.45 | 55 | 1013.6 |
| 20260506221009 | 13 | 15 | 3.2 | 6.4 | 0.00 | 2.24 | 1.45 | 54 | 1013.6 |
| 20260506220507 | 13 | 5 | 3.2 | 9.7 | 0.00 | 2.24 | 1.45 | 54 | 1013.7 |
| 20260506220019 | 13 | 303 | 4.8 | 9.7 | 0.00 | 2.24 | 1.45 | 54 | 1013.6 |
| 20260506215502 | 13 | 278 | 4.8 | 9.7 | 0.00 | 2.26 | 1.45 | 54 | 1013.6 |
| 20260506215003 | 13 | 316 | 3.2 | 6.4 | 0.00 | 2.26 | 1.45 | 56 | 1013.6 |
| 20260506214513 | 13 | 330 | 3.2 | 8.0 | 0.00 | 2.26 | 1.45 | 57 | 1013.6 |
| 20260506214004 | 13 | 319 | 3.2 | 16.1 | 0.00 | 2.29 | 1.45 | 55 | 1013.6 |
| 20260506213505 | 13 | 25 | 6.4 | 14.5 | 0.00 | 2.29 | 1.45 | 55 | 1013.5 |
| 20260506213018 | 13 | 305 | 8.0 | 14.5 | 0.00 | 2.29 | 1.45 | 54 | 1013.5 |
| 20260506212508 | 13 | 344 | 6.4 | 16.1 | 0.00 | 2.29 | 1.45 | 53 | 1013.4 |
| 20260506212010 | 13 | 350 | 8.0 | 16.1 | 0.00 | 2.29 | 1.45 | 54 | 1013.3 |
| 20260506211523 | 13 | 320 | 4.8 | 11.3 | 0.00 | 2.31 | 1.45 | 57 | 1013.1 |
| 20260506211010 | 13 | 311 | 4.8 | 11.3 | 0.00 | 2.31 | 1.45 | 57 | 1013.2 |
| 20260506210506 | 13 | 350 | 3.2 | 9.7 | 0.00 | 2.34 | 1.45 | 55 | 1013.1 |
| 20260506210030 | 13 | 325 | 4.8 | 9.7 | 0.00 | 2.34 | 1.45 | 54 | 1013.2 |
| 20260506205503 | 13 | 24 | 3.2 | 8.0 | 0.00 | 2.34 | 1.45 | 56 | 1013.1 |
| 20260506205003 | 13 | 278 | 4.8 | 12.9 | 0.00 | 2.36 | 1.45 | 53 | 1013.1 |
| 20260506204515 | 13 | 352 | 6.4 | 12.9 | 0.00 | 2.36 | 1.45 | 54 | 1013.1 |
| 20260506204006 | 13 | 289 | 3.2 | 11.3 | 0.00 | 2.39 | 1.45 | 55 | 1013.2 |
| 20260506203513 | 13 | 318 | 3.2 | 11.3 | 0.00 | 2.39 | 1.45 | 58 | 1013.2 |
| 20260506203019 | 13 | 350 | 3.2 | 8.0 | 0.00 | 2.39 | 1.45 | 54 | 1013.2 |
| 20260506202507 | 13 | 21 | 3.2 | 8.0 | 0.00 | 2.39 | 1.45 | 54 | 1013.2 |
| 20260506202007 | 13 | 13 | 4.8 | 9.7 | 0.00 | 2.41 | 1.45 | 54 | 1013.2 |
| 20260506201522 | 13 | 352 | 4.8 | 14.5 | 0.00 | 2.44 | 1.45 | 53 | 1013.2 |
| 20260506201008 | 13 | 305 | 6.4 | 14.5 | 0.00 | 2.46 | 1.45 | 55 | 1013.3 |
| 20260506200510 | 13 | 287 | 3.2 | 11.3 | 0.00 | 2.54 | 1.45 | 54 | 1013.3 |
| 20260506200024 | 13 | 318 | 4.8 | 14.5 | 0.00 | 2.64 | 1.45 | 54 | 1013.3 |
| 20260506195510 | 13 | 306 | 6.4 | 12.9 | 0.00 | 2.84 | 1.45 | 54 | 1013.2 |
| 20260506195006 | 13 | 346 | 4.8 | 14.5 | 0.00 | 2.84 | 1.45 | 53 | 1013.2 |
| 20260506194516 | 13 | 287 | 4.8 | 16.1 | 0.00 | 2.84 | 1.45 | 54 | 1013.1 |
| 20260506194003 | 13 | 310 | 11.3 | 16.1 | 0.00 | 2.84 | 1.45 | 52 | 1013.2 |
| 20260506193503 | 14 | 293 | 8.0 | 16.1 | 0.00 | 2.84 | 1.45 | 51 | 1013.0 |
| 20260506193016 | 14 | 10 | 6.4 | 16.1 | 0.00 | 2.84 | 1.45 | 53 | 1012.9 |
| 20260506192511 | 14 | 331 | 4.8 | 14.5 | 0.00 | 2.84 | 1.45 | 55 | 1012.8 |
| 20260506192010 | 14 | 285 | 4.8 | 22.5 | 0.00 | 2.84 | 1.45 | 56 | 1012.8 |
| 20260506191522 | 14 | 277 | 8.0 | 22.5 | 0.00 | 2.84 | 1.45 | 54 | 1012.9 |
| 20260506191007 | 14 | 298 | 11.3 | 22.5 | 0.00 | 2.84 | 1.45 | 55 | 1012.9 |
| 20260506190508 | 15 | 308 | 8.0 | 22.5 | 0.00 | 2.84 | 1.45 | 54 | 1012.9 |
| 20260506190025 | 15 | 360 | 8.0 | 22.5 | 0.00 | 2.84 | 1.45 | 54 | 1013.0 |
| 20260506185510 | 15 | 27 | 6.4 | 16.1 | 0.00 | 2.84 | 1.45 | 56 | 1012.9 |
| 20260506185008 | 15 | 304 | 6.4 | 16.1 | 0.00 | 2.84 | 1.45 | 55 | 1012.8 |
| 20260506184527 | 15 | 288 | 6.4 | 16.1 | 0.00 | 2.84 | 1.45 | 52 | 1012.7 |
| 20260506184008 | 15 | 288 | 6.4 | 16.1 | 0.00 | 2.84 | 1.45 | 55 | 1012.6 |
| 20260506183508 | 15 | 294 | 6.4 | 12.9 | 0.00 | 2.84 | 1.45 | 58 | 1012.7 |
| 20260506183013 | 14 | 5 | 3.2 | 14.5 | 0.00 | 2.84 | 1.45 | 57 | 1012.8 |
| 20260506182506 | 14 | 327 | 6.4 | 14.5 | 0.00 | 2.84 | 1.45 | 58 | 1012.8 |
| 20260506182008 | 15 | 334 | 6.4 | 14.5 | 0.00 | 2.84 | 1.45 | 58 | 1012.8 |
| 20260506181518 | 15 | 306 | 8.0 | 14.5 | 0.00 | 2.84 | 1.45 | 54 | 1012.9 |
| 20260506181012 | 15 | 221 | 1.6 | 14.5 | 0.00 | 2.84 | 1.45 | 54 | 1012.8 |
| 20260506180510 | 15 | 27 | 6.4 | 11.3 | 0.00 | 2.84 | 1.45 | 53 | 1012.7 |
| 20260506180023 | 14 | 352 | 4.8 | 19.3 | 0.00 | 2.84 | 1.45 | 57 | 1012.9 |
| 20260506175510 | 14 | 27 | 8.0 | 19.3 | 0.00 | 2.84 | 1.45 | 55 | 1013.0 |
| 20260506175008 | 14 | 227 | 3.2 | 14.5 | 0.00 | 2.84 | 1.45 | 56 | 1013.2 |
| 20260506174528 | 14 | 344 | 3.2 | 14.5 | 0.00 | 2.84 | 1.45 | 56 | 1013.2 |
| 20260506174007 | 14 | 40 | 4.8 | 14.5 | 0.00 | 2.84 | 1.45 | 56 | 1013.1 |
| 20260506173509 | 14 | 49 | 4.8 | 22.5 | 0.00 | 2.84 | 1.45 | 54 | 1013.2 |
| 20260506173029 | 14 | 5 | 6.4 | 22.5 | 0.00 | 2.84 | 1.45 | 55 | 1013.2 |
| 20260506172511 | 14 | 334 | 3.2 | 17.7 | 0.00 | 2.84 | 1.45 | 51 | 1013.2 |
| 20260506172006 | 14 | 90 | 6.4 | 17.7 | 0.00 | 2.84 | 1.45 | 55 | 1013.2 |
| 20260506171521 | 13 | 325 | 6.4 | 17.7 | 0.00 | 2.84 | 1.45 | 55 | 1013.2 |
| 20260506171006 | 13 | 54 | 4.8 | 17.7 | 0.00 | 2.84 | 1.45 | 52 | 1013.2 |
| 20260506170508 | 13 | 9 | 8.0 | 14.5 | 0.00 | 2.84 | 1.45 | 54 | 1013.3 |
| 20260506170022 | 13 | 350 | 3.2 | 22.5 | 0.00 | 2.84 | 1.45 | 56 | 1013.3 |
| 20260506165507 | 13 | 22 | 4.8 | 22.5 | 0.00 | 2.84 | 1.45 | 54 | 1013.3 |
| 20260506165009 | 13 | 339 | 6.4 | 14.5 | 0.00 | 2.84 | 1.45 | 55 | 1013.2 |
| 20260506164524 | 13 | 334 | 3.2 | 9.7 | 0.00 | 2.84 | 1.45 | 56 | 1013.2 |
| 20260506164011 | 13 | 275 | 1.6 | 9.7 | 0.00 | 2.84 | 1.45 | 54 | 1013.3 |
| 20260506163509 | 13 | 55 | 1.6 | 12.9 | 0.00 | 2.84 | 1.45 | 59 | 1013.3 |
| 20260506163049 | 13 | 5 | 4.8 | 12.9 | 0.00 | 2.84 | 1.45 | 57 | 1013.2 |
| 20260506162512 | 12 | 32 | 3.2 | 16.1 | 0.00 | 2.84 | 1.45 | 57 | 1013.3 |
| 20260506162011 | 12 | 67 | 6.4 | 19.3 | 0.00 | 2.84 | 1.45 | 59 | 1013.2 |
| 20260506161527 | 13 | 45 | 6.4 | 19.3 | 0.00 | 2.84 | 1.45 | 59 | 1013.1 |
| 20260506161005 | 13 | 17 | 6.4 | 12.9 | 0.00 | 2.84 | 1.45 | 60 | 1013.2 |
| 20260506160510 | 13 | 317 | 3.2 | 11.3 | 0.00 | 2.84 | 1.45 | 60 | 1013.1 |
| 20260506160022 | 12 | 5 | 1.6 | 11.3 | 0.00 | 2.84 | 1.45 | 60 | 1013.1 |
| 20260506155506 | 12 | 40 | 4.8 | 12.9 | 0.00 | 2.84 | 1.45 | 64 | 1013.0 |
| 20260506155010 | 12 | 339 | 4.8 | 14.5 | 0.00 | 2.84 | 1.45 | 63 | 1013.0 |
| 20260506154528 | 12 | 13 | 6.4 | 14.5 | 0.00 | 2.84 | 1.45 | 61 | 1013.1 |
| 20260506154010 | 12 | 113 | 3.2 | 12.9 | 0.00 | 2.84 | 1.45 | 61 | 1013.3 |
| 20260506153509 | 12 | 32 | 4.8 | 16.1 | 0.00 | 2.84 | 1.45 | 62 | 1013.3 |
| 20260506153027 | 12 | 348 | 6.4 | 16.1 | 0.00 | 2.84 | 1.45 | 60 | 1013.3 |
| 20260506152508 | 11 | 42 | 3.2 | 9.7 | 0.00 | 2.84 | 1.45 | 61 | 1013.2 |
| 20260506152010 | 11 | 319 | 3.2 | 11.3 | 0.00 | 2.84 | 1.45 | 64 | 1013.1 |
| 20260506151527 | 11 | 24 | 4.8 | 14.5 | 0.00 | 2.84 | 1.45 | 64 | 1012.8 |
| 20260506151010 | 11 | 36 | 8.0 | 14.5 | 0.00 | 2.84 | 1.45 | 60 | 1012.8 |
| 20260506150510 | 11 | 312 | 8.0 | 14.5 | 0.00 | 2.84 | 1.45 | 63 | 1012.7 |
| 20260506150027 | 11 | 12 | 4.8 | 12.9 | 0.00 | 2.84 | 1.45 | 63 | 1012.5 |
| 20260506145510 | 11 | 82 | 3.2 | 16.1 | 0.00 | 2.84 | 1.45 | 68 | 1012.4 |
| 20260506145007 | 11 | 112 | 1.6 | 16.1 | 0.00 | 2.84 | 1.45 | 70 | 1012.3 |
| 20260506144525 | 11 | 24 | 8.0 | 16.1 | 0.00 | 2.84 | 1.45 | 69 | 1012.2 |
| 20260506144011 | 10 | 290 | 6.4 | 17.7 | 0.00 | 2.84 | 1.45 | 72 | 1012.2 |
| 20260506143506 | 10 | 61 | 4.8 | 17.7 | 0.00 | 2.84 | 1.45 | 71 | 1012.0 |
| 20260506143010 | 10 | 62 | 4.8 | 14.5 | 0.00 | 2.84 | 1.45 | 74 | 1012.1 |
| 20260506142502 | 10 | 348 | 3.2 | 14.5 | 0.00 | 2.84 | 1.45 | 77 | 1012.2 |
| 20260506142003 | 10 | 84 | 1.6 | 12.9 | 0.00 | 2.84 | 1.45 | 77 | 1012.1 |
| 20260506141507 | 10 | 327 | 6.4 | 12.9 | 0.00 | 2.84 | 1.45 | 76 | 1012.1 |
| 20260506141002 | 9 | 41 | 6.4 | 12.9 | 0.00 | 2.84 | 1.45 | 77 | 1012.1 |
| 20260506140504 | 9 | 5 | 6.4 | 14.5 | 0.00 | 2.84 | 1.45 | 76 | 1012.1 |
| 20260506140010 | 9 | 48 | 6.4 | 14.5 | 0.00 | 2.84 | 1.45 | 78 | 1011.8 |
| 20260506135501 | 8 | 351 | 3.2 | 12.9 | 0.00 | 2.84 | 1.45 | 81 | 1011.9 |
| 20260506135005 | 8 | 352 | 3.2 | 12.9 | 0.00 | 2.84 | 1.45 | 82 | 1012.0 |
| 20260506134504 | 8 | 323 | 4.8 | 12.9 | 0.00 | 2.84 | 1.45 | 81 | 1012.0 |
| 20260506134003 | 8 | 300 | 4.8 | 12.9 | 0.00 | 2.84 | 1.45 | 80 | 1012.0 |
| 20260506133502 | 8 | 316 | 4.8 | 9.7 | 0.00 | 2.84 | 1.45 | 81 | 1011.9 |
| 20260506133005 | 8 | 319 | 4.8 | 11.3 | 0.00 | 2.84 | 1.45 | 81 | 1011.8 |
| 20260506132503 | 8 | 325 | 4.8 | 11.3 | 0.00 | 2.84 | 1.45 | 82 | 1011.6 |
| 20260506132003 | 8 | 11 | 4.8 | 8.0 | 0.00 | 2.84 | 1.45 | 82 | 1011.6 |
| 20260506131514 | 8 | 317 | 3.2 | 8.0 | 0.00 | 2.84 | 1.45 | 81 | 1011.6 |
| 20260506131003 | 8 | 36 | 1.6 | 8.0 | 0.00 | 2.84 | 1.45 | 81 | 1011.7 |
| 20260506130504 | 8 | 360 | 3.2 | 8.0 | 0.00 | 2.84 | 1.45 | 81 | 1011.6 |
| 20260506130009 | 8 | 320 | 3.2 | 12.9 | 0.00 | 2.84 | 1.45 | 81 | 1011.5 |
| 20260506125503 | 8 | 325 | 4.8 | 12.9 | 0.00 | 2.84 | 1.45 | 81 | 1011.4 |
| 20260506125003 | 7 | 9 | 4.8 | 12.9 | 0.00 | 2.84 | 1.45 | 82 | 1011.3 |
| 20260506124504 | 7 | 34 | 3.2 | 12.9 | 0.00 | 2.84 | 1.45 | 82 | 1011.3 |
| 20260506124003 | 7 | 360 | 3.2 | 11.3 | 0.00 | 2.84 | 1.45 | 84 | 1011.3 |
| 20260506123504 | 7 | 302 | 3.2 | 8.0 | 0.00 | 2.84 | 1.45 | 84 | 1011.4 |
| 20260506123003 | 7 | 323 | 3.2 | 6.4 | 0.00 | 2.84 | 1.45 | 84 | 1011.4 |
| 20260506122502 | 7 | 303 | 3.2 | 9.7 | 0.00 | 2.84 | 1.45 | 85 | 1011.3 |
| 20260506122003 | 7 | 321 | 1.6 | 11.3 | 0.00 | 2.84 | 1.45 | 85 | 1011.1 |
| 20260506121507 | 7 | 47 | 4.8 | 11.3 | 0.00 | 2.84 | 1.45 | 85 | 1011.0 |
| 20260506121003 | 7 | 316 | 1.6 | 12.9 | 0.00 | 2.84 | 1.45 | 86 | 1011.0 |
| 20260506120507 | 7 | 280 | 4.8 | 12.9 | 0.00 | 2.84 | 1.45 | 87 | 1011.0 |
| 20260506120014 | 7 | 315 | 3.2 | 8.0 | 0.00 | 2.84 | 1.45 | 87 | 1010.9 |
| 20260506115506 | 7 | 313 | 3.2 | 6.4 | 0.00 | 2.84 | 1.45 | 87 | 1010.7 |
| 20260506115003 | 7 | 352 | 0.0 | 6.4 | 0.00 | 2.87 | 1.45 | 87 | 1010.5 |
| 20260506114513 | 7 | 327 | 3.2 | 6.4 | 0.00 | 2.87 | 1.45 | 87 | 1010.2 |
| 20260506114004 | 7 | 360 | 1.6 | 6.4 | 0.00 | 2.87 | 1.45 | 88 | 1010.2 |
| 20260506113503 | 7 | 323 | 1.6 | 4.8 | 0.00 | 2.87 | 1.45 | 88 | 1010.2 |
| 20260506113004 | 7 | 330 | 1.6 | 8.0 | 0.00 | 2.87 | 1.45 | 88 | 1010.1 |
| 20260506112503 | 7 | 30 | 3.2 | 8.0 | 0.00 | 2.87 | 1.45 | 88 | 1010.1 |
| 20260506112003 | 7 | 313 | 1.6 | 6.4 | 0.00 | 2.87 | 1.45 | 88 | 1010.1 |
| 20260506111507 | 7 | 309 | 1.6 | 6.4 | 0.00 | 2.90 | 1.45 | 88 | 1010.1 |
| 20260506111003 | 7 | 324 | 1.6 | 8.0 | 0.00 | 2.90 | 1.45 | 89 | 1010.3 |
| 20260506110507 | 7 | 281 | 3.2 | 8.0 | 0.00 | 2.90 | 1.45 | 88 | 1010.1 |
| 20260506110013 | 7 | 298 | 1.6 | 8.0 | 0.00 | 2.90 | 1.45 | 88 | 1009.7 |
| 20260506105503 | 7 | 352 | 3.2 | 6.4 | 0.00 | 2.90 | 1.45 | 89 | 1009.3 |
| 20260506105008 | 7 | 22 | 1.6 | 6.4 | 0.03 | 2.90 | 1.45 | 89 | 1009.2 |
| 20260506104516 | 7 | 333 | 4.8 | 6.4 | 0.03 | 2.90 | 1.45 | 88 | 1009.5 |
| 20260506104003 | 7 | 338 | 1.6 | 4.8 | 0.03 | 2.92 | 1.45 | 88 | 1009.9 |
| 20260506103504 | 7 | 311 | 1.6 | 6.4 | 0.03 | 2.92 | 1.45 | 89 | 1009.9 |
| 20260506103024 | 7 | 304 | 3.2 | 8.0 | 0.03 | 2.92 | 1.45 | 89 | 1009.8 |
| 20260506102504 | 7 | 302 | 3.2 | 8.0 | 0.03 | 2.95 | 1.45 | 89 | 1009.5 |
| 20260506102004 | 7 | 298 | 3.2 | 6.4 | 0.03 | 2.95 | 1.45 | 89 | 1009.2 |
| 20260506101503 | 7 | 352 | 0.0 | 8.0 | 0.03 | 2.95 | 1.45 | 88 | 1008.9 |
| 20260506101003 | 7 | 334 | 1.6 | 8.0 | 0.03 | 2.95 | 1.45 | 88 | 1008.8 |
| 20260506100504 | 7 | 331 | 4.8 | 8.0 | 0.03 | 2.95 | 1.45 | 88 | 1008.8 |
| 20260506100013 | 7 | 331 | 3.2 | 6.4 | 0.03 | 2.97 | 1.45 | 88 | 1008.9 |
| 20260506095503 | 7 | 36 | 0.0 | 4.8 | 0.03 | 2.97 | 1.45 | 88 | 1008.8 |
| 20260506095004 | 7 | 24 | 1.6 | 4.8 | 0.00 | 2.95 | 1.42 | 88 | 1008.8 |